Location: *
(46.1006°N, 1.8394°E)
Time: 02:35:28
(UTC+00:00)

FREGAT/IRIS - Pass Details

Date: 20 September 2019
Orbit: 347 x 350 km, 97.0° (Epoch: 15 October)

Event Time Altitude Azimuth Distance (km) Brightness Sun altitude
Exits shadow 19:37:29 11° 198° (SSW) 1,292 5.2 -18.2°
Maximum altitude 19:39:57 31° 263° (W) 655 4.3 -18.6°
Drops below altitude 10° 19:42:32 10° 328° (NNW) 1,335 6.1 -19.0°
Sets 19:44:36 0° 339° (NNW) 2,187 7.1 -19.3°
